[[{"header":{"parameterUnit":"m.s-1","parameterCategory":1,"la1":30.2991,"la2":30.254,"lo1":-89.0895,"lo2":-89.0444,"dy":0.0017,"dx":0.0017,"nx":28,"ny":28,"refTime":"2025-01-09T09:00:00:Z","depth":0,"parameterNumber":2,"parameterNumberName":"U-component_of_WINDS"},"data":[0,0,0,0,0,0,0,0,0,0,0,0,0,0,0,0,0,0,0,0,0,0,0,0,0,0,0,0,0,0,0,0,0,0,0,0,0,0,0,0,0,0,0,0,0,0,0,0,0,0,0,0,0,0,0,0,0,0,-4.5366,-4.5367,0,-4.541,-4.541,-4.5411,-4.5292,-4.5288,-4.5285,-4.5281,-4.5326,-4.5331,-4.5336,0,0,0,0,0,0,0,0,0,0,0,0,0,-4.5181,-4.5185,-4.5366,-4.5367,-4.5367,-4.541,-4.541,-4.5411,-4.5293,-4.5288,-4.5284,-4.5279,-4.5325,-4.533,-4.5336,0,0,0,0,0,0,0,0,0,0,0,0,0,-4.5247,-4.5186,-4.5366,-4.5313,-4.5309,-4.541,-4.541,-4.5411,-4.5294,-4.5288,-4.5282,-4.5277,-4.5323,-4.533,-4.5337,-4.549,0,0,-4.5358,-4.5361,0,0,0,0,0,0,0,0,-4.5243,-4.5254,-4.5321,-4.5317,-4.5313,-4.534,-4.5361,-4.5438,-4.5295,-4.53,-4.5281,-4.5275,-4.5335,-4.5341,-4.5361,-4.5493,-4.5494,-4.5359,-4.5363,-4.5366,-4.5368,0,0,0,0,0,0,0,-4.5239,-4.5251,-4.5383,-4.5322,-4.5317,-4.5288,-4.5291,-4.5375,-4.5348,-4.5299,-4.529,-4.5297,-4.5332,-4.5355,-4.5362,-4.5495,-4.5358,-4.5365,-4.5369,-4.5372,-4.5754,-4.576,0,0,0,0,0,0,-4.5241,-4.5248,-4.5382,-4.5385,-4.5264,-4.5295,-4.5299,-4.5337,-4.5347,-4.5343,-4.5302,-4.5291,-4.5346,-4.5354,-4.5363,-4.5544,-4.5366,-4.5372,-4.5376,-4.5748,-4.5756,-4.5762,0,0,0,0,0,0,-4.5237,-4.5254,-4.538,-4.5314,-4.5328,-4.5304,-4.5348,-4.534,-4.5363,-4.5349,-4.5343,-4.533,-4.5342,-4.5353,-4.5459,-4.5543,-4.5375,-4.5382,-4.5741,-4.5751,-4.5759,-4.5907,0,0,0,0,0,0,-4.5233,-4.5253,-4.5312,-4.5316,-4.5332,-4.5477,-4.5353,-4.5345,-4.5375,-4.5362,-4.5374,-4.5371,-4.5338,-4.545,-4.5466,-4.555,-4.5387,-4.5734,-4.5745,-4.5756,-4.5894,-4.592,-4.5941,0,0,0,0,0,-4.5226,-4.5352,-4.5315,-4.5332,-4.5404,-4.5482,-4.5491,-4.5451,-4.5383,-4.5441,-4.5432,-4.537,-4.5531,-4.5462,-4.5479,-4.5566,-4.5728,-4.5742,-4.5755,-4.5884,-4.5915,-4.5941,0,0,0,0,0,0,-4.5358,-4.5352,-4.5311,-4.5442,-4.5463,-4.5462,-4.5534,-4.5485,-4.5527,-4.5513,-4.5461,-4.5465,-4.5581,-4.5584,-4.5506,-4.5715,-4.5618,-4.5636,-4.571,-4.5739,-4.5762,-4.576,-4.5393,0,0,0,0,0,-4.5402,-4.5466,-4.5456,-4.5573,-4.5586,-4.5559,-4.5591,-4.5558,-4.5578,-4.5587,-4.5585,-4.5608,-4.5663,-4.5701,-4.5751,-4.5893,-4.5894,-4.5962,-4.5985,-4.6005,-4.6021,-4.6097,-4.6127,-4.5806,-4.5806,-4.5806,0,0,-4.5495,-4.5499,-4.5542,-4.5599,-4.5612,-4.5679,-4.5567,-4.5643,-4.5692,-4.5598,-4.5699,-4.5699,-4.572,-4.5846,-4.5901,-4.5852,-4.611,-4.6022,-4.6038,-4.6043,-4.6114,-4.6144,-4.6171,-4.5815,-4.5814,-4.5812,0,0,-4.5697,-4.5707,-4.5804,-4.5819,-4.584,-4.5821,-4.5845,-4.5851,-4.5847,-4.5947,-4.5878,-4.5936,-4.6032,-4.605,-4.6072,-4.6281,-4.6226,-4.6299,-4.6422,-4.6497,-4.6522,-4.6544,-4.6619,-4.6647,-4.6315,-4.6315,-4.6315,0,-4.5809,-4.5908,-4.5861,-4.5942,-4.5969,-4.5886,-4.5985,-4.6002,-4.6039,-4.606,-4.6004,-4.6123,-4.6131,-4.626,-4.6311,-4.6331,-4.6357,-4.6298,-4.6522,-4.6544,-4.6564,-4.6635,-4.6663,-4.6324,-4.6323,-4.6322,-4.6321,0,-4.6045,-4.6114,-4.6191,-4.6228,-4.6263,-4.6353,-4.632,-4.6362,-4.6325,-4.6312,-4.6415,-4.6422,-4.6472,-4.65,-4.6465,-4.6624,-4.6593,-4.6531,-4.6432,-4.6604,-4.667,-4.6697,-4.6336,-4.6333,-4.6331,-4.6328,0,0,-4.6334,-4.6343,-4.6372,-4.6388,-4.6404,-4.6457,-4.6542,-4.6591,-4.6628,-4.6655,-4.6726,-4.6809,-4.6751,-4.6776,-4.6743,-4.6808,-4.6974,-4.6737,-4.6737,-4.6782,-4.7149,-4.7197,-4.723,-4.6937,-4.6942,-4.6946,-4.7148,0,-4.6534,-4.6681,-4.6641,-4.6788,-4.6851,-4.6773,-4.6847,-4.6866,-4.6855,-4.6908,-4.6895,-4.6956,-4.6875,-4.6889,-4.695,-4.6941,-4.7047,-4.6925,-4.7003,-4.7006,-4.7001,-4.7264,-4.7315,-4.7506,-4.7173,-4.7178,-4.7181,0,-4.6788,-4.6825,-4.6979,-4.6984,-4.7009,-4.7077,-4.7118,-4.7169,-4.7188,-4.7176,-4.7204,-4.7156,-4.724,-4.714,-4.7256,-4.7174,-4.7203,-4.7203,-4.7209,-4.7216,-4.7105,-4.7279,-4.7565,-4.7595,-4.7221,-4.7218,-4.7215,0,-4.6985,-4.7073,-4.7176,-4.7191,-4.72,-4.725,-4.7256,-4.7269,-4.7301,-4.7337,-4.7357,-4.7402,-4.7428,-4.7464,-4.743,-4.736,-4.7551,-4.7448,-4.7544,-4.7545,-4.7589,-4.7587,-4.7886,-4.7606,-4.7606,-4.7605,-4.7605,0,-4.7214,-4.7311,-4.7264,-4.7328,-4.7434,-4.7387,-4.7493,-4.749,-4.7502,-4.7564,-4.7498,-4.7558,-4.7509,-4.7564,-4.7538,-4.7638,-4.765,-4.7642,-4.7635,-4.7649,-4.765,-4.7669,-4.7655,-4.7613,-4.7611,-4.761,-4.7608,0,-4.7452,-4.7424,-4.7532,-4.7531,-4.7533,-4.7612,-4.7611,-4.7669,-4.7654,-4.7732,-4.7748,-4.7724,-4.7785,-4.7755,-4.7818,-4.7801,-4.793,-4.7904,-4.7924,-4.7918,-4.8016,-4.8008,-4.8337,-4.8379,-4.8072,-4.8075,-4.8077,0,-4.7601,-4.7673,-4.768,-4.7717,-4.7727,-4.7787,-4.7819,-4.7774,-4.781,-4.7837,-4.7893,-4.7948,-4.799,-4.8091,-4.808,-4.8128,-4.8103,-4.8215,-4.811,-4.8122,-4.8106,-4.8103,-4.811,-4.8237,-4.8241,-4.8243,-4.8246,0,-4.7868,-4.785,-4.7899,-4.7943,-4.7983,-4.8016,-4.8043,-4.8076,-4.8033,-4.8077,-4.8138,-4.8171,-4.8235,-4.8292,-4.8333,-4.8339,-4.8286,-4.8279,-4.8304,-4.832,-4.8329,-4.8326,-4.7983,-4.8272,-4.8269,-4.8267,-4.8266,-4.8265,-4.8066,-4.8127,-4.8142,-4.8198,-4.8214,-4.824,-4.8296,-4.8286,-4.8337,-4.8386,-4.8357,-4.8429,-4.8445,-4.8496,-4.8508,-4.8564,-4.852,-4.8556,-4.8565,-4.8575,-4.8589,-4.8319,-4.8572,-4.8571,-4.857,-4.8569,-4.8569,0,-4.8331,-4.8336,-4.8388,-4.8428,-4.8472,-4.8417,-4.8444,-4.8485,-4.855,-4.8569,-4.8611,-4.8682,-4.8736,-4.8728,-4.8777,-4.8823,-4.88,-4.8838,-4.8835,-4.8837,-4.8625,-4.8599,-4.8856,-4.8856,-4.8856,-4.8856,-4.8855,-4.8855,-4.8474,-4.8575,-4.8559,-4.8666,-4.867,-4.8741,-4.8761,-4.8785,-4.88,-4.8882,-4.8927,-4.8921,-4.8929,-4.8978,-4.9025,-4.9021,-4.9042,-4.909,-4.9077,-4.888,-4.8852,-4.8825,-4.88,-4.9094,-4.9095,-4.9284,-4.9286,-4.9287]},{"header":{"parameterUnit":"m.s-1","parameterCategory":1,"la1":30.2991,"la2":30.254,"lo1":-89.0895,"lo2":-89.0444,"dy":0.0017,"dx":0.0017,"nx":28,"ny":28,"refTime":"2025-01-09T09:00:00:Z","depth":0,"parameterNumber":3,"parameterNumberName":"V-component_of_WINDS"},"data":[0,0,0,0,0,0,0,0,0,0,0,0,0,0,0,0,0,0,0,0,0,0,0,0,0,0,0,0,0,0,0,0,0,0,0,0,0,0,0,0,0,0,0,0,0,0,0,0,0,0,0,0,0,0,0,0,0,0,-4.0894,-4.0895,0,-4.0911,-4.0911,-4.0911,-4.0848,-4.0847,-4.0845,-4.0843,-4.0859,-4.0861,-4.0863,0,0,0,0,0,0,0,0,0,0,0,0,0,-4.0806,-4.0808,-4.0894,-4.0895,-4.0895,-4.0911,-4.0911,-4.0911,-4.0849,-4.0846,-4.0844,-4.0842,-4.0858,-4.0861,-4.0863,0,0,0,0,0,0,0,0,0,0,0,0,0,-4.0836,-4.0809,-4.0894,-4.0866,-4.0863,-4.0911,-4.0911,-4.0912,-4.0849,-4.0846,-4.0844,-4.0841,-4.0857,-4.086,-4.0863,-4.094,0,0,-4.0873,-4.0875,0,0,0,0,0,0,0,0,-4.0834,-4.0839,-4.087,-4.0868,-4.0865,-4.0875,-4.0886,-4.0921,-4.085,-4.0854,-4.0843,-4.084,-4.0866,-4.0869,-4.0878,-4.094,-4.0941,-4.0874,-4.0876,-4.0877,-4.0878,0,0,0,0,0,0,0,-4.0832,-4.0838,-4.0901,-4.087,-4.0867,-4.0851,-4.0852,-4.0892,-4.0876,-4.0854,-4.0849,-4.0852,-4.0864,-4.0875,-4.0878,-4.0941,-4.0874,-4.0876,-4.0878,-4.088,-4.1066,-4.1068,0,0,0,0,0,0,-4.0834,-4.0837,-4.09,-4.0901,-4.0842,-4.0855,-4.0856,-4.0874,-4.0875,-4.0873,-4.0855,-4.0849,-4.0871,-4.0874,-4.0878,-4.0966,-4.0877,-4.088,-4.0882,-4.1063,-4.1066,-4.1069,0,0,0,0,0,0,-4.0833,-4.0841,-4.09,-4.0868,-4.0874,-4.0859,-4.088,-4.0876,-4.0887,-4.0876,-4.0872,-4.0868,-4.0869,-4.0873,-4.0924,-4.0966,-4.0882,-4.0884,-4.1059,-4.1064,-4.1068,-4.1144,0,0,0,0,0,0,-4.083,-4.084,-4.087,-4.0869,-4.0876,-4.0947,-4.0883,-4.0879,-4.0892,-4.0886,-4.0888,-4.0885,-4.0867,-4.092,-4.0928,-4.0969,-4.0887,-4.1055,-4.1061,-4.1066,-4.1138,-4.1151,-4.1162,0,0,0,0,0,-4.0828,-4.0891,-4.0872,-4.088,-4.0913,-4.0949,-4.0953,-4.0931,-4.0896,-4.0925,-4.0918,-4.0885,-4.096,-4.0926,-4.0934,-4.0977,-4.1053,-4.1059,-4.1066,-4.1133,-4.1148,-4.1161,0,0,0,0,0,0,-4.0897,-4.089,-4.0869,-4.0934,-4.0943,-4.0939,-4.0975,-4.0948,-4.0967,-4.096,-4.0931,-4.0932,-4.0988,-4.0987,-4.0949,-4.105,-4.1,-4.1009,-4.1048,-4.1063,-4.1075,-4.1073,-4.089,0,0,0,0,0,-4.0919,-4.095,-4.0943,-4.1001,-4.1006,-4.099,-4.1005,-4.0987,-4.0995,-4.0998,-4.0995,-4.1003,-4.1028,-4.1045,-4.1068,-4.1137,-4.1136,-4.1171,-4.1183,-4.1193,-4.12,-4.1236,-4.1251,-4.1092,-4.1091,-4.1091,0,0,-4.0967,-4.0967,-4.0988,-4.1015,-4.1019,-4.1051,-4.0994,-4.103,-4.1053,-4.1003,-4.1051,-4.1049,-4.1056,-4.1117,-4.1143,-4.1118,-4.1244,-4.1201,-4.1209,-4.1211,-4.1244,-4.1259,-4.1273,-4.1096,-4.1095,-4.1095,0,0,-4.1069,-4.1073,-4.1121,-4.1127,-4.1135,-4.1123,-4.1135,-4.1135,-4.1132,-4.1179,-4.1142,-4.1169,-4.1213,-4.122,-4.1229,-4.1333,-4.1303,-4.1341,-4.1403,-4.1438,-4.1451,-4.1462,-4.1498,-4.1512,-4.1349,-4.1349,-4.1349,0,-4.1127,-4.1175,-4.1149,-4.1188,-4.12,-4.1157,-4.1205,-4.1211,-4.1226,-4.1235,-4.1207,-4.1261,-4.1263,-4.1324,-4.1349,-4.1358,-4.137,-4.1341,-4.1451,-4.1462,-4.1472,-4.1506,-4.152,-4.1354,-4.1353,-4.1353,-4.1352,0,-4.1245,-4.1278,-4.1316,-4.1331,-4.1348,-4.1391,-4.1372,-4.1391,-4.1371,-4.1362,-4.1411,-4.1412,-4.1433,-4.1446,-4.1427,-4.1504,-4.1488,-4.1456,-4.1406,-4.1492,-4.1524,-4.1537,-4.136,-4.1358,-4.1357,-4.1356,0,0,-4.1392,-4.1392,-4.1407,-4.1413,-4.1418,-4.1442,-4.1483,-4.1504,-4.1521,-4.1533,-4.1565,-4.1604,-4.1574,-4.1584,-4.1565,-4.1596,-4.1677,-4.156,-4.156,-4.1581,-4.1761,-4.1785,-4.1801,-4.1658,-4.166,-4.1662,-4.176,0,-4.1492,-4.1563,-4.1541,-4.1611,-4.1641,-4.1599,-4.1634,-4.1641,-4.1634,-4.1657,-4.1649,-4.1676,-4.1635,-4.1641,-4.1669,-4.1662,-4.1713,-4.1654,-4.1687,-4.1689,-4.1687,-4.1817,-4.1843,-4.1936,-4.1772,-4.1775,-4.1776,0,-4.1619,-4.1635,-4.1709,-4.1708,-4.1719,-4.1752,-4.1769,-4.1792,-4.1798,-4.179,-4.1802,-4.1776,-4.1815,-4.1765,-4.1818,-4.1778,-4.179,-4.1788,-4.1791,-4.1793,-4.1738,-4.1822,-4.1965,-4.1978,-4.1796,-4.1794,-4.1793,0,-4.1718,-4.1759,-4.1807,-4.1814,-4.1814,-4.1837,-4.1838,-4.1841,-4.1855,-4.187,-4.1879,-4.1898,-4.1908,-4.1923,-4.1903,-4.1869,-4.1959,-4.1907,-4.1953,-4.1954,-4.1974,-4.1973,-4.212,-4.1983,-4.1983,-4.1982,-4.1982,0,-4.1832,-4.1879,-4.1852,-4.1882,-4.1932,-4.1906,-4.1956,-4.1953,-4.1956,-4.1984,-4.1949,-4.1976,-4.1948,-4.1972,-4.1957,-4.2002,-4.2008,-4.2002,-4.1997,-4.2005,-4.2006,-4.2012,-4.2005,-4.1986,-4.1985,-4.1984,-4.1984,0,-4.1952,-4.1936,-4.1986,-4.1982,-4.1982,-4.2019,-4.2015,-4.2042,-4.2032,-4.2068,-4.2075,-4.2059,-4.2085,-4.2067,-4.2093,-4.2083,-4.2143,-4.2129,-4.2141,-4.2137,-4.2184,-4.2179,-4.234,-4.2359,-4.221,-4.2212,-4.2213,0,-4.2026,-4.206,-4.206,-4.2076,-4.2079,-4.2106,-4.212,-4.2095,-4.211,-4.2119,-4.2145,-4.2169,-4.2186,-4.2231,-4.2221,-4.2241,-4.2227,-4.2282,-4.223,-4.2236,-4.2227,-4.2226,-4.2228,-4.2293,-4.2294,-4.2296,-4.2297,0,-4.2158,-4.2148,-4.2169,-4.2188,-4.2205,-4.2219,-4.2229,-4.2244,-4.2219,-4.2238,-4.2265,-4.2279,-4.2305,-4.2329,-4.2345,-4.2345,-4.2317,-4.2313,-4.2325,-4.2333,-4.2338,-4.2335,-4.2169,-4.231,-4.2308,-4.2308,-4.2307,-4.2306,-4.2257,-4.2285,-4.2289,-4.2313,-4.2318,-4.2329,-4.2354,-4.2346,-4.2368,-4.2388,-4.2372,-4.2404,-4.2408,-4.2426,-4.243,-4.2454,-4.2432,-4.2449,-4.2453,-4.2457,-4.2464,-4.2335,-4.2457,-4.2457,-4.2456,-4.2456,-4.2456,0,-4.2387,-4.2387,-4.241,-4.2425,-4.2444,-4.2416,-4.2425,-4.2443,-4.2472,-4.2478,-4.2496,-4.2526,-4.2548,-4.254,-4.256,-4.2581,-4.2568,-4.2587,-4.2585,-4.2585,-4.2483,-4.2471,-4.2596,-4.2596,-4.2596,-4.2596,-4.2596,-4.2596,-4.2456,-4.2503,-4.2493,-4.2541,-4.2541,-4.2572,-4.2579,-4.2588,-4.2593,-4.2628,-4.2647,-4.2641,-4.2642,-4.2661,-4.268,-4.2677,-4.2686,-4.2709,-4.2701,-4.2606,-4.2592,-4.2579,-4.2567,-4.2711,-4.2711,-4.2801,-4.2802,-4.2803]}]]